TimeEST,TemperatureF,Dew PointF,Humidity,Sea Level PressureIn,VisibilityMPH,Wind Direction,Wind SpeedMPH,Gust SpeedMPH,PrecipitationIn,Events,Conditions,WindDirDegrees,DateUTC
12:53 AM,68.0,63.0,84,30.19,10.0,SE,3.5,-,N/A,,Mostly Cloudy,140,2012-11-27 05:53:00
2:53 AM,69.1,63.0,81,30.17,10.0,South,3.5,-,N/A,,Overcast,170,2012-11-27 07:53:00
3:53 AM,64.9,61.0,87,30.17,10.0,Calm,Calm,-,N/A,,Mostly Cloudy,0,2012-11-27 08:53:00
4:53 AM,64.9,62.1,90,30.16,10.0,Calm,Calm,-,N/A,,Mostly Cloudy,0,2012-11-27 09:53:00
5:53 AM,63.0,60.1,90,30.17,10.0,Calm,Calm,-,N/A,,Mostly Cloudy,0,2012-11-27 10:53:00
6:53 AM,61.0,59.0,93,30.18,6.0,Calm,Calm,-,N/A,,Scattered Clouds,0,2012-11-27 11:53:00
7:53 AM,64.0,63.0,96,30.18,8.0,Calm,Calm,-,N/A,,Clear,0,2012-11-27 12:53:00
8:53 AM,73.0,64.0,73,30.20,10.0,SE,4.6,-,N/A,,Partly Cloudy,140,2012-11-27 13:53:00
9:53 AM,73.0,62.1,68,30.21,10.0,SE,8.1,-,N/A,,Scattered Clouds,130,2012-11-27 14:53:00
10:53 AM,75.9,62.1,62,30.20,10.0,ESE,11.5,-,N/A,,Scattered Clouds,120,2012-11-27 15:53:00
11:53 AM,75.0,62.1,64,30.18,10.0,SE,10.4,-,N/A,,Mostly Cloudy,140,2012-11-27 16:53:00
12:53 PM,79.0,63.0,58,30.15,10.0,SE,11.5,-,N/A,,Scattered Clouds,140,2012-11-27 17:53:00
1:53 PM,77.0,62.1,60,30.13,10.0,ESE,11.5,-,N/A,,Scattered Clouds,120,2012-11-27 18:53:00
2:53 PM,75.9,61.0,60,30.11,10.0,ESE,11.5,-,N/A,,Mostly Cloudy,120,2012-11-27 19:53:00
3:53 PM,75.9,61.0,60,30.10,10.0,SSE,11.5,-,N/A,,Scattered Clouds,150,2012-11-27 20:53:00
4:53 PM,73.9,60.1,62,30.11,10.0,SE,8.1,-,N/A,,Scattered Clouds,140,2012-11-27 21:53:00
5:53 PM,70.0,60.1,71,30.12,10.0,SSE,5.8,-,N/A,,Clear,160,2012-11-27 22:53:00
6:53 PM,64.0,57.9,80,30.14,10.0,Calm,Calm,-,N/A,,Partly Cloudy,0,2012-11-27 23:53:00
7:53 PM,66.9,60.1,79,30.14,10.0,Calm,Calm,-,N/A,,Scattered Clouds,0,2012-11-28 00:53:00
8:53 PM,69.1,62.1,78,30.14,10.0,South,4.6,-,N/A,,Overcast,170,2012-11-28 01:53:00
9:53 PM,70.0,63.0,78,30.14,10.0,South,6.9,-,N/A,,Overcast,180,2012-11-28 02:53:00
10:53 PM,69.1,63.0,81,30.13,10.0,SSW,5.8,-,N/A,,Mostly Cloudy,210,2012-11-28 03:53:00
11:53 PM,66.9,63.0,87,30.12,10.0,SW,4.6,-,N/A,,Clear,220,2012-11-28 04:53:00